McCook, NE

8:44 PM CST on December 08, 2019 (GMT -0600)
McCook Municipal

Weather History for KMCK - September, 2019

Change the Weather History Date:

Thursday, September 5, 2019

  Actual Average Record
Temperature  
Mean Temperature 80 °F 69 °F  
Max Temperature 100 °F 84 °F 106 °F (1931)
Min Temperature 60 °F 54 °F 36 °F (1962)
Cooling Degree Days 16    
Growing Degree Days 30 (Base 50)    
Moisture  
Dew Point 63 °F    
Average Humidity 65    
Maximum Humidity 93    
Minimum Humidity 28    
Precipitation  
Precipitation 0.00 in 0.06 in 0.59 in (1985)
Month to date precipitation 0.00 0.27  
Year to date precipitation 17.33 17.98  
Sea Level Pressure  
Sea Level Pressure 29.95 in    
Wind  
Wind Speed 4 mph ()    
Max Wind Speed 9 mph    
Max Gust Speed -    
Visibility 9.7 miles    
Events      
T = Trace of Precipitation, MM = Missing Value Source: Averaged Metar Reports

Daily Weather History Graph

Daily Weather History Graph

Search for Another Location

Airport or City:

Astronomy

Sep. 05, 2019 Rise Set
Actual Time 7:13 AM CDT 8:07 PM CDT
Civil Twilight 6:45 AM CDT 8:35 PM CDT
Nautical Twilight 6:12 AM CDT 9:08 PM CDT
Astronomical Twilight 5:38 AM CDT 9:42 PM CDT
Moon 2:22 PM CDT (9/5) No Moon Set
Length of Visible Light 13h 49m
Length of Day
12h 54m
Waxing Crescent, 45% of the Moon is Illuminated
Sep 5
Waxing Crescent
Sep 5
First Quarter
Sep 13
Full
Sep 21
Last Quarter
Sep 28
New

Hourly Weather History & Observations

Time (CDT) Temp. Heat Index Dew Point Humidity Pressure Visibility Wind Dir Wind Speed Gust Speed Precip Events Conditions
12:53 AM 66.0 °F - 63.0 °F 90% 29.99 in 10.0 mi East 3.5 mph - N/A   Clear
1:53 AM 64.0 °F - 62.1 °F 93% 29.97 in 9.0 mi NNE 3.5 mph - N/A   Clear
2:53 AM 64.9 °F - 62.1 °F 90% 29.96 in 10.0 mi SSE 5.8 mph - N/A   Unknown
3:53 AM 62.1 °F - 59.0 °F 90% 29.95 in 10.0 mi SW 4.6 mph - N/A   Unknown
4:53 AM 63.0 °F - 59.0 °F 87% 29.94 in 10.0 mi SSW 4.6 mph - N/A   Unknown
5:53 AM 62.1 °F - 59.0 °F 90% 29.94 in 10.0 mi Calm Calm - N/A   Clear
6:53 AM 61.0 °F - 57.9 °F 90% 29.95 in 10.0 mi Calm Calm - N/A   Clear
7:53 AM 61.0 °F - 59.0 °F 93% 29.96 in 9.0 mi South 3.5 mph - N/A   Clear
8:53 AM 66.9 °F - 59.0 °F 76% 29.96 in 10.0 mi SW 5.8 mph - N/A   Clear
9:53 AM 73.9 °F - 60.1 °F 62% 29.96 in 9.0 mi SW 5.8 mph - N/A   Clear
10:53 AM 78.1 °F - 61.0 °F 56% 29.95 in 10.0 mi WSW 4.6 mph - N/A   Clear
11:53 AM 84.0 °F 84.9 °F 63.0 °F 49% 29.94 in 10.0 mi Calm Calm - N/A   Clear
12:53 PM 88.0 °F 87.6 °F 60.1 °F 39% 29.94 in 10.0 mi SW 5.8 mph - N/A   Clear
1:08 PM 89.1 °F 89.0 °F 61.0 °F 39% 30.02 in 5.0 mi Variable 3.5 mph - N/A   Haze
1:53 PM 91.0 °F 91.5 °F 62.1 °F 38% 29.93 in 10.0 mi Variable 3.5 mph - N/A   Unknown
2:53 PM 96.1 °F 98.3 °F 64.0 °F 35% 29.92 in 10.0 mi Variable 3.5 mph - N/A   Unknown
3:53 PM 98.1 °F 99.6 °F 63.0 °F 31% 29.91 in 10.0 mi WNW 4.6 mph - N/A   Unknown
4:53 PM 100.0 °F 101.2 °F 61.0 °F 28% 29.89 in 10.0 mi NNW 4.6 mph - N/A   Unknown
5:53 PM 99.0 °F 100.5 °F 63.0 °F 30% 29.90 in 10.0 mi North 6.9 mph - N/A   Unknown
6:53 PM 91.9 °F 95.4 °F 66.9 °F 44% 29.92 in 10.0 mi North 9.2 mph - N/A   Unknown
7:53 PM 82.9 °F 86.5 °F 69.1 °F 63% 29.95 in 10.0 mi NE 6.9 mph - N/A   Unknown
8:53 PM 77.0 °F - 69.1 °F 76% 29.97 in 10.0 mi NE 6.9 mph - N/A   Unknown
9:53 PM 75.9 °F - 68.0 °F 76% 30.00 in 10.0 mi ENE 6.9 mph - N/A   Unknown
10:53 PM 73.0 °F - 66.9 °F 81% 30.01 in 10.0 mi NE 5.8 mph - N/A   Unknown
11:53 PM 73.9 °F - 69.1 °F 85% 30.02 in 10.0 mi NE 9.2 mph - N/A   Unknown